Weather History for Syracuse, NY

Change the Weather History Date:

Wednesday, March 5, 2014

  Actual Average Record
Temperature  
Mean Temperature 12 °F 30 °F  
Max Temperature 23 °F 39 °F 71 °F (1976)
Min Temperature 0 °F 21 °F -8 °F (1948)
Degree Days  
Heating Degree Days 53 35  
Month to date heating degree days 253 177  
Since 1 July heating degree days 5345 5008  
Cooling Degree Days 0 0  
Month to date cooling degree days 0 0  
Year to date cooling degree days 0 0  
Moisture  
Dew Point 11 °F    
Average Humidity 70    
Maximum Humidity 88    
Minimum Humidity 51    
Precipitation  
Precipitation T in 0.08 in 0.79 in (1920)
Month to date precipitation 0.19 0.42  
Year to date precipitation 5.74 4.99  
Snow  
Snow 0.40 in 0.80 in 12.30 in (2001)
Month to date snowfall 4.9 4.1  
Since 1 July snowfall 114.8 106.0  
Snow Depth 9.00 in    
Sea Level Pressure  
Sea Level Pressure 30.37 in    
Wind  
Wind Speed 5 mph (NW)    
Max Wind Speed 16 mph    
Max Gust Speed 21 mph    
Visibility 6 miles    
Events Snow    
T = Trace of Precipitation, MM = Missing Value Source: NWS Daily Summary

Daily Weather History Graph

Daily Weather History Graph

Search for Another Location

Airport:

Trip Planner

Search our weather history database for the weather conditions in past years. The results will help you decide how hot, cold, wet, or windy it might be!

Date:

Astronomy

Mar. 05, 2014 Rise Set
Actual Time 6:33 AM EST 5:58 PM EST
Civil Twilight 6:05 AM EST 6:27 PM EST
Nautical Twilight 5:32 AM EST 6:59 PM EST
Astronomical Twilight 4:59 AM EST 7:33 PM EST
Moon 8:50 AM EST (3/5) 11:13 PM EST (3/5)
Length of Visible Light 12h 21m
Length of Day
11h 24m
Waxing Crescent, 23% of the Moon is Illuminated
Mar 5
Waxing Crescent
Mar 8
First Quarter
Mar 16
Full
Mar 23
Last Quarter
Mar 30
New

Hourly Weather History & Observations

Time (EST) Temp. Windchill Dew Point Humidity Pressure Visibility Wind Dir Wind Speed Gust Speed Precip Events Conditions
12:54 AM 15.1 °F - 10.9 °F 84% 30.26 in 9.0 mi Calm Calm - 0.00 in Snow Light Snow
1:54 AM 15.1 °F - 10.9 °F 84% 30.26 in 9.0 mi Calm Calm - 0.00 in Snow Light Snow
2:54 AM 15.1 °F 9.4 °F 10.9 °F 84% 30.24 in 9.0 mi ENE 3.5 mph - 0.00 in Snow Light Snow
3:54 AM 15.1 °F - 10.9 °F 84% 30.25 in 9.0 mi Calm Calm - 0.00 in Snow Light Snow
4:54 AM 15.1 °F - 10.9 °F 84% 30.26 in 9.0 mi Calm Calm - 0.00 in Snow Light Snow
5:54 AM 15.1 °F - 10.9 °F 84% 30.27 in 9.0 mi Calm Calm - 0.00 in Snow Light Snow
6:54 AM 15.1 °F - 12.0 °F 88% 30.28 in 6.0 mi Calm Calm - 0.00 in Snow Light Snow
7:28 AM 15.8 °F - 12.2 °F 86% 30.28 in 6.0 mi Calm Calm - 0.00 in Snow Light Snow
7:54 AM 16.0 °F - 12.0 °F 84% 30.30 in 4.0 mi Calm Calm - 0.00 in Snow Light Snow
8:02 AM 17.6 °F - 12.2 °F 79% 30.29 in 2.5 mi Calm Calm - 0.00 in Snow Light Snow
8:13 AM 17.6 °F - 12.2 °F 79% 30.30 in 3.0 mi Calm Calm - 0.00 in Snow Light Snow
8:29 AM 17.6 °F 12.3 °F 12.2 °F 79% 30.31 in 1.8 mi WNW 3.5 mph - 0.00 in Snow Light Snow
8:54 AM 17.1 °F 10.0 °F 12.9 °F 84% 30.34 in 2.0 mi West 4.6 mph - 0.00 in Snow Light Snow
9:15 AM 17.6 °F 12.3 °F 14.0 °F 86% 30.33 in 3.0 mi WNW 3.5 mph - 0.00 in Snow Light Snow
9:38 AM 19.4 °F - 15.8 °F 86% 30.32 in 3.0 mi Calm Calm - 0.00 in Snow Light Snow
9:54 AM 21.0 °F - 14.0 °F 74% 30.34 in 4.0 mi Calm Calm - 0.00 in Snow Light Snow
10:54 AM 19.9 °F - 14.0 °F 78% 30.34 in 6.0 mi Calm Calm - 0.00 in Snow Light Snow
11:34 AM 21.2 °F 12.6 °F 12.2 °F 68% 30.33 in 10.0 mi WNW 6.9 mph - 0.00 in   Overcast
11:54 AM 21.9 °F 11.7 °F 14.0 °F 72% 30.35 in 6.0 mi West 9.2 mph - 0.00 in Snow Light Snow
11:57 AM 21.2 °F 10.1 °F 14.0 °F 74% 30.34 in 2.0 mi WNW 10.4 mph - 0.00 in Snow Light Snow
11:58 AM 21.2 °F 10.9 °F 14.0 °F 74% 30.34 in 1.0 mi WNW 9.2 mph - 0.00 in Snow Light Snow
12:04 PM 21.2 °F 10.9 °F 15.8 °F 80% 30.34 in 2.5 mi WNW 9.2 mph - 0.00 in Snow Light Snow
12:07 PM 21.2 °F 10.9 °F 14.0 °F 74% 30.34 in 4.0 mi WNW 9.2 mph - 0.00 in Snow Light Snow
12:14 PM 21.2 °F 9.5 °F 12.2 °F 68% 30.34 in 8.0 mi WNW 11.5 mph - 0.00 in Snow Light Snow
12:31 PM 23.0 °F 13.1 °F 12.2 °F 63% 30.34 in 5.0 mi WNW 9.2 mph - 0.00 in Snow Light Snow
12:46 PM 23.0 °F 12.4 °F 14.0 °F 68% 30.34 in 2.5 mi WNW 10.4 mph - 0.00 in Snow Light Snow
12:54 PM 23.0 °F 13.1 °F 16.0 °F 74% 30.35 in 2.0 mi NW 9.2 mph - 0.00 in Snow Light Snow
1:07 PM 21.2 °F 8.9 °F 15.8 °F 80% 30.35 in 4.0 mi NNW 12.7 mph - 0.00 in Snow Light Snow
1:21 PM 21.2 °F 9.5 °F 12.2 °F 68% 30.35 in 9.0 mi WNW 11.5 mph - 0.00 in Snow Light Snow
1:54 PM 21.0 °F 8.6 °F 12.9 °F 71% 30.37 in 9.0 mi NNW 12.7 mph - 0.00 in Snow Light Snow
2:11 PM 21.2 °F 8.9 °F 12.2 °F 68% 30.37 in 2.5 mi NW 12.7 mph - 0.00 in Snow Light Snow
2:21 PM 21.2 °F 9.5 °F 14.0 °F 74% 30.37 in 1.5 mi NW 11.5 mph - 0.00 in Snow Light Snow
2:25 PM 21.2 °F 8.9 °F 15.8 °F 80% 30.37 in 0.8 mi WNW 12.7 mph - 0.00 in Snow Light Snow
2:32 PM 21.2 °F 9.5 °F 15.8 °F 80% 30.38 in 1.0 mi WNW 11.5 mph - 0.00 in Snow Light Snow
2:35 PM 21.2 °F 10.9 °F 15.8 °F 80% 30.38 in 2.0 mi WNW 9.2 mph - 0.00 in Snow Light Snow
2:41 PM 21.2 °F 9.5 °F 14.0 °F 74% 30.38 in 5.0 mi NW 11.5 mph - 0.00 in Snow Light Snow
2:54 PM 21.0 °F 7.1 °F 10.9 °F 65% 30.40 in 9.0 mi NNW 16.1 mph - 0.00 in Snow Light Snow
3:54 PM 21.0 °F 8.1 °F 10.9 °F 65% 30.43 in 9.0 mi NNW 13.8 mph - 0.00 in Snow Light Snow
4:54 PM 19.9 °F 6.2 °F 7.0 °F 57% 30.44 in 10.0 mi NNW 15.0 mph - 0.00 in   Mostly Cloudy
5:54 PM 19.0 °F 7.5 °F 5.0 °F 54% 30.48 in 10.0 mi NW 10.4 mph - N/A   Mostly Cloudy
6:54 PM 15.1 °F 2.5 °F 3.0 °F 59% 30.52 in 10.0 mi NNW 10.4 mph - N/A   Partly Cloudy
7:54 PM 14.0 °F 2.0 °F 1.0 °F 56% 30.55 in 10.0 mi North 9.2 mph - N/A   Clear
8:54 PM 12.0 °F 2.7 °F -0.0 °F 59% 30.57 in 10.0 mi North 5.8 mph - N/A   Clear
9:54 PM 10.0 °F 3.6 °F -0.9 °F 61% 30.59 in 10.0 mi NNW 3.5 mph - N/A   Clear
10:54 PM 8.1 °F 1.4 °F -0.9 °F 67% 30.60 in 10.0 mi North 3.5 mph - N/A   Clear
11:54 PM 1.0 °F -6.7 °F -2.9 °F 83% 30.60 in 10.0 mi North 3.5 mph - N/A   Clear